sat.trackr.live / text

‹ back to catalog

STARLINK-37005

NORAD 68107 · 2026-044G

PAYLOAD ACTIVE UNKNOWN

§ Identity

Operator
Country
US
Launch date
2026-03-08
Launch site
AFWTR
Launch vehicle
Mass (kg)
RCS (m²)

Purposes: comms

External: N2YO · Heavens-Above · Gunter

§ Orbital elements

Epoch: 2026-09-19T15:37:04.589184Z

Period
93.91 min
Inclination
97.2850°
Eccentricity
0.0001848
Mean motion
15.33444765 rev/d
Perigee alt
464.3 km
Apogee alt
466.8 km
Semi-major
6,843.7 km
B*
5.5335e-4
RAAN
221.5535°
Arg perigee
91.2553°
Mean anomaly
268.8901°
Rev number
3,130

§ Raw data

STARLINK-370051 68107U 26044G   26262.65074756  .00017832  00000+0  55335-3 0  99902 68107  97.2850 221.5535 0001848  91.2553 268.8901 15.33444765 31307

JSON: /api/v1/satellites/68107 · /tle

For live sub-satellite position, see the globe view (requires WebGL).

§ Visibility from observer

Set your observer location to see the next 7 days of passes ≥ 10°. The values pass through the URL so the page stays shareable.

No JS? Fill the form by hand. The geolocation button needs JavaScript.